Vorticity
5 5 7 5 8 13 11 9 7 8 5 4 9 7 4 0 2 6 3 2 1 5 9 3 3 4 2 4 4 3 2 3 3 3 2 3 4 3 4 5 3 1 2 2 3
6 6 6 5 5 5 10 12 8 6 8 2 11 6 2 3 1 3 4 3 3 3 5 5 3 4 4 3 4 3 4 3 2 2 3 3 3 3 4 3 4 6 4 4 3
6 6 6 7 4 6 5 5 13 10 7 5 9 15 -3 8 3 2 5 3 3 2 3 6 4 4 5 3 4 3 3 6 3 4 5 4 3 4 4 4 2 4 5 5 5
6 8 8 8 7 7 5 5 8 14 10 7 4 9 14 4 5 1 1 6 4 1 4 4 5 5 5 3 4 3 4 8 4 3 6 7 8 8 8 7 9 9 9 7 6
5 3 4 5 7 10 5 7 5 6 15 10 4 5 10 7 8 5 0 -2 4 -4 3 4 5 5 5 5 4 4 4 8 8 6 5 5 3 6 5 5 8 5 8 11 9
5 4 3 4 6 7 9 8 4 3 5 14 8 0 4 9 3 7 6 -1 -1 6 3 2 4 5 5 6 5 4 4 6 5 5 6 4 3 5 5 5 5 5 7 12 11
6 5 7 5 5 5 5 7 7 6 6 5 8 12 4 15 11 3 10 5 6 11 -6 6 4 3 6 4 6 4 4 5 3 3 5 4 1 6 6 3 6 3 5 7 10
15 11 6 7 6 7 7 9 6 6 3 7 5 8 8 11 6 12 13 12 1 3 11 -6 3 3 7 5 1 5 6 4 3 4 5 2 2 4 3 4 6 5 4 12 5
10 10 11 9 7 8 9 8 9 8 5 7 7 6 9 9 6 7 16 16 10 2 1 -6 -13 5 5 4 3 4 4 4 5 6 6 5 4 4 2 5 5 6 8 13 10
8 7 13 9 7 7 5 7 9 10 11 8 7 7 11 7 7 7 6 18 13 12 4 19 15 -13 9 3 3 5 9 8 6 4 5 5 7 2 2 7 8 1 8 12 10
7 11 9 12 6 6 6 5 7 7 6 8 2 16 7 10 8 12 8 11 9 12 18 12 20 -4 2 0 6 7 7 8 5 7 8 6 3 -4 12 5 4 3 10 12 8
7 8 12 11 7 7 5 5 7 7 8 8 4 9 10 13 12 8 9 -1 11 13 11 13 15 0 3 10 1 8 2 -2 -5 -2 7 8 1 8 10 5 4 10 12 13 13
19 3 12 8 10 4 7 6 6 7 8 10 9 5 12 6 9 10 9 8 2 8 12 14 22 7 10 10 6 3 -0 16 20 6 0 -3 1 9 7 6 8 16 13 10 12
6 21 3 7 13 9 8 8 7 8 10 9 14 4 10 16 1 9 15 6 6 2 10 10 16 11 13 11 3 7 18 13 6 -3 18 5 10 11 7 6 5 15 11 9 9
2 12 23 9 10 9 17 7 7 16 6 13 10 17 15 12 16 15 12 10 9 2 8 11 11 14 10 9 1 11 10 -2 6 3 -2 12 5 10 6 6 9 15 9 7 8
17 7 -10 5 5 16 2 6 8 -0 11 10 6 8 13 15 19 11 21 15 3 5 5 2 6 5 9 3 7 9 8 7 20 17 7 8 10 6 6 8 11 12 11 10 10
34 13 15 15 11 13 7 5 6 2 14 4 9 8 -3 4 -3 16 26 17 13 14 16 7 10 9 16 7 11 23 32 33 18 17 18 7 4 6 12 11 12 9 10 9 9
-15 7 8 -5 17 10 5 6 4 8 18 -2 26 9 8 6 8 13 21 16 12 11 13 4 10 13 24 22 13 8 14 4 6 10 1 6 10 14 20 15 9 7 9 9 9
-12 -10 8 -2 18 7 6 10 16 5 12 -8 5 10 6 8 7 6 11 21 21 18 14 14 12 10 23 11 9 12 7 9 8 5 10 3 8 12 6 9 10 8 7 8 8
27 31 5 11 15 3 1 11 5 -2 11 2 7 13 9 11 7 5 3 6 25 19 19 22 17 19 20 7 7 4 6 4 4 7 9 8 8 12 9 8 8 8 8 7 6
-1 9 6 3 10 2 1 13 11 3 8 4 -6 14 3 11 9 11 5 9 20 17 10 12 7 4 5 14 18 13 9 9 8 7 7 4 9 9 8 4 3 7 7 7 7
21 21 10 21 -14 11 4 20 7 9 8 2 -11 13 9 -0 4 10 11 11 19 29 10 37 -1 4 6 3 1 4 2 10 6 7 6 7 11 8 7 9 5 3 3 8 6
24 -7 -5 -14 11 3 4 8 7 7 -1 13 8 2 5 1 4 10 9 10 7 13 21 14 21 20 18 22 18 10 5 16 9 10 12 5 3 10 7 3 3 5 6 4 5
17 6 14 22 9 -3 11 10 11 5 6 8 9 7 1 6 1 -0 7 14 8 9 6 9 10 12 9 27 14 22 9 8 10 3 -2 11 4 9 8 8 8 8 7 7 6
6 21 20 -7 -5 3 8 10 9 8 9 11 2 4 12 9 7 7 7 9 11 17 4 5 7 9 14 9 10 5 1 5 -5 22 13 5 8 5 5 2 4 7 11 9 8
18 -7 -10 29 14 0 4 8 6 14 -2 -4 13 -1 1 17 10 10 7 12 10 30 10 -7 -2 12 6 2 4 -0 3 14 7 6 4 9 8 8 9 7 9 7 5 6 6
12 -2 19 10 6 8 3 7 10 7 5 18 10 1 7 14 6 5 8 -2 14 1 11 17 6 12 8 4 9 11 16 7 4 2 3 4 3 6 8 8 8 8 6 6 3
Height
5803 5806 5810 5812 5815 5818 5821 5827 5830 5834 5837 5840 5844 5847 5851 5854 5857 5859 5861 5865 5866 5868 5869 5870 5871 5873 5873 5873 5874 5874 5875 5875 5875 5875 5874 5874 5874 5873 5873 5873 5873 5872 5872 5872 5871
5795 5798 5801 5804 5807 5811 5814 5819 5822 5826 5831 5833 5837 5840 5845 5848 5852 5853 5858 5860 5862 5864 5866 5866 5867 5869 5870 5871 5871 5871 5872 5874 5872 5872 5872 5871 5872 5871 5871 5870 5871 5871 5871 5870 5869
5786 5789 5793 5797 5801 5804 5807 5811 5814 5818 5823 5826 5830 5833 5837 5842 5845 5848 5852 5855 5857 5860 5861 5862 5863 5865 5866 5867 5868 5869 5869 5871 5870 5869 5869 5869 5868 5868 5868 5867 5866 5868 5867 5866 5866
5778 5781 5784 5789 5793 5796 5801 5804 5807 5811 5815 5818 5822 5826 5830 5835 5840 5842 5845 5849 5852 5854 5857 5858 5860 5861 5862 5864 5865 5865 5865 5867 5866 5866 5866 5866 5866 5866 5864 5863 5863 5863 5863 5861 5860
5769 5772 5776 5780 5785 5789 5793 5797 5800 5804 5808 5811 5815 5819 5823 5828 5831 5834 5839 5843 5846 5847 5851 5854 5856 5857 5858 5859 5860 5860 5861 5862 5863 5863 5863 5862 5862 5862 5861 5859 5860 5859 5858 5857 5856
5760 5764 5767 5771 5776 5780 5785 5789 5792 5795 5799 5803 5807 5812 5816 5822 5823 5826 5832 5836 5839 5841 5844 5848 5852 5851 5854 5854 5855 5856 5857 5858 5859 5859 5859 5859 5859 5858 5858 5857 5856 5855 5853 5851 5850
5749 5753 5758 5762 5767 5770 5774 5780 5783 5787 5791 5796 5799 5803 5808 5811 5815 5817 5822 5827 5831 5834 5838 5842 5843 5846 5848 5848 5850 5851 5853 5854 5854 5854 5855 5855 5855 5854 5854 5854 5852 5850 5849 5847 5846
5737 5742 5747 5752 5757 5762 5766 5770 5775 5780 5783 5787 5791 5795 5801 5800 5808 5811 5815 5819 5823 5826 5830 5833 5835 5839 5842 5843 5845 5846 5847 5847 5849 5849 5850 5851 5850 5849 5849 5850 5847 5844 5844 5843 5842
5728 5733 5738 5743 5748 5754 5758 5761 5767 5771 5775 5779 5783 5788 5792 5794 5801 5802 5806 5809 5813 5818 5821 5823 5827 5832 5835 5836 5838 5838 5840 5843 5844 5844 5844 5845 5845 5845 5844 5844 5844 5840 5838 5838 5837
5717 5723 5728 5733 5739 5744 5748 5752 5758 5762 5767 5770 5775 5781 5785 5789 5791 5794 5798 5802 5805 5808 5811 5815 5818 5823 5828 5829 5830 5831 5834 5837 5837 5838 5837 5837 5838 5840 5838 5838 5840 5836 5833 5832 5832
5706 5712 5718 5724 5729 5734 5739 5744 5750 5756 5759 5762 5767 5771 5777 5779 5783 5787 5790 5793 5796 5799 5803 5806 5809 5816 5820 5820 5823 5824 5829 5829 5830 5831 5832 5832 5832 5832 5833 5833 5834 5832 5827 5827 5826
5696 5702 5708 5714 5720 5724 5729 5736 5742 5748 5751 5754 5758 5763 5769 5771 5776 5779 5781 5785 5788 5793 5795 5799 5802 5808 5809 5810 5815 5817 5820 5821 5822 5824 5826 5824 5826 5825 5826 5825 5826 5826 5820 5820 5820
5686 5692 5699 5704 5710 5717 5724 5730 5732 5737 5740 5747 5750 5755 5759 5763 5766 5770 5773 5777 5782 5784 5786 5790 5797 5796 5799 5802 5807 5811 5812 5814 5815 5816 5816 5815 5821 5818 5819 5818 5819 5818 5816 5815 5815
5674 5676 5687 5694 5703 5709 5717 5719 5724 5729 5731 5742 5742 5747 5748 5756 5759 5760 5764 5768 5773 5778 5779 5781 5786 5788 5792 5796 5799 5803 5804 5805 5805 5807 5809 5809 5814 5813 5812 5812 5812 5812 5811 5809 5810
5663 5671 5677 5688 5697 5703 5712 5708 5716 5721 5721 5732 5734 5738 5740 5748 5753 5753 5756 5758 5765 5770 5771 5776 5780 5780 5784 5791 5788 5795 5796 5797 5798 5798 5801 5806 5801 5809 5806 5806 5805 5805 5805 5804 5803
5653 5660 5668 5677 5687 5694 5688 5698 5705 5711 5714 5722 5726 5731 5734 5739 5743 5743 5745 5750 5754 5758 5761 5765 5770 5772 5777 5781 5783 5785 5789 5788 5790 5791 5793 5798 5795 5804 5800 5799 5798 5798 5798 5797 5798
5639 5649 5659 5668 5678 5673 5682 5688 5694 5699 5711 5716 5720 5725 5728 5730 5734 5735 5737 5740 5745 5750 5754 5760 5761 5765 5769 5772 5774 5777 5780 5781 5783 5785 5789 5790 5790 5795 5793 5792 5792 5792 5792 5792 5792
5626 5635 5647 5658 5659 5662 5672 5679 5686 5697 5703 5709 5714 5718 5722 5723 5727 5729 5729 5732 5736 5739 5745 5747 5753 5757 5763 5764 5769 5769 5771 5774 5777 5780 5782 5781 5784 5786 5786 5786 5787 5788 5787 5786 5785
5615 5625 5635 5644 5645 5653 5661 5668 5678 5687 5697 5703 5707 5712 5716 5718 5721 5722 5723 5726 5729 5733 5737 5740 5744 5748 5754 5756 5759 5763 5765 5771 5769 5771 5773 5775 5779 5781 5781 5781 5781 5782 5782 5781 5780
5604 5612 5625 5629 5636 5643 5652 5662 5671 5681 5689 5696 5701 5705 5710 5711 5714 5715 5717 5721 5723 5726 5728 5732 5736 5741 5745 5748 5752 5756 5761 5761 5762 5765 5765 5769 5772 5774 5776 5776 5775 5775 5776 5776 5775
5584 5597 5609 5617 5624 5632 5645 5654 5665 5675 5682 5690 5695 5698 5703 5706 5708 5709 5712 5715 5716 5719 5722 5726 5729 5736 5739 5743 5748 5749 5752 5754 5757 5759 5761 5764 5767 5769 5769 5769 5770 5770 5770 5770 5769
5572 5581 5591 5600 5613 5628 5637 5646 5660 5668 5675 5683 5689 5693 5697 5701 5701 5704 5707 5709 5712 5715 5716 5722 5724 5729 5733 5734 5737 5740 5746 5746 5747 5754 5754 5757 5762 5763 5763 5761 5761 5764 5765 5764 5762
5560 5570 5582 5592 5604 5620 5629 5638 5650 5658 5668 5675 5682 5687 5692 5696 5698 5702 5703 5706 5707 5709 5712 5714 5714 5721 5724 5728 5731 5736 5740 5742 5744 5746 5749 5751 5757 5756 5756 5755 5755 5756 5755 5754 5754
5544 5555 5568 5585 5600 5613 5622 5633 5641 5650 5658 5668 5675 5680 5686 5689 5693 5696 5700 5701 5703 5705 5708 5709 5712 5717 5723 5725 5727 5730 5733 5737 5738 5740 5744 5744 5747 5748 5748 5747 5748 5749 5747 5747 5745
5537 5549 5571 5579 5593 5603 5613 5627 5635 5643 5652 5659 5666 5673 5679 5684 5687 5691 5694 5697 5699 5702 5704 5705 5710 5714 5717 5719 5722 5726 5728 5729 5731 5736 5735 5741 5737 5742 5739 5738 5739 5740 5740 5738 5737
5530 5544 5561 5576 5585 5595 5605 5616 5627 5638 5646 5654 5662 5669 5673 5678 5683 5687 5690 5692 5694 5697 5699 5703 5706 5708 5710 5713 5716 5718 5719 5723 5726 5727 5728 5731 5733 5733 5733 5732 5733 5731 5729 5729 5729
5521 5542 5553 5566 5575 5587 5601 5614 5623 5630 5639 5647 5656 5660 5664 5672 5676 5680 5683 5685 5689 5692 5695 5698 5700 5703 5706 5707 5709 5710 5715 5717 5718 5721 5723 5722 5727 5724 5726 5725 5724 5723 5721 5719 5718